This demonstration page uses our WeatherBlox Daily Observations layout. Learn more.

Hourly Observations for November 1, 2015

Temp ( °F °C ) Dew Point ( °F °C ) Humidity (%) Winds ( mph kmh ) Pressure ( in mb ) Visibility ( mi km ) Precip ( " mm )
11:15 am 11:15 Sunny 69 20.3 37 2.8 32 32 WSW 9 15 29.8 1009 10 16.0934 0 0
11:35 am 11:35 Sunny 68 20.1 37 2.5 31 31 WSW 12 19 29.8 1009 10 16.0934 0 0
11:55 am 11:55 Sunny 69 20.8 37 3 31 31 WSW 9 15 29.8 1009 10 16.0934 0 0
12:15 pm 12:15 Sunny 71 21.5 37 3 30 30 SW 7 11 29.77 1008 10 16.0934 0 0
12:35 pm 12:35 Sunny 73 22.8 36 2.2 26 26 SW 8 13 29.74 1007 10 16.0934 0 0
12:55 pm 12:55 Sunny 75 23.7 35 1.8 24 24 W 15 24 29.74 1007 10 16.0934 0 0
1:15 pm 13:15 Sunny 75 23.7 34 1.2 23 23 WSW 9 15 29.71 1006 10 16.0934 0 0
1:35 pm 13:35 Sunny 77 24.9 33 0.8 21 21 W 13 20 29.68 1005 10 16.0934 0 0
1:55 pm 13:55 undefined 77 25.1 32 0.2 19 19 WSW 8 13 29.68 1005 N/A 0 0
2:15 pm 14:15 Sunny 78 25.5 33 0.4 19 19 W 8 13 29.68 1005 10 16.0934 0 0
2:35 pm 14:35 Sunny 78 25.7 32 0.2 19 19 WSW 9 15 29.65 1004 10 16.0934 0 0
2:55 pm 14:55 Sunny 79 26.2 30 -1.3 16 16 WSW 13 20 29.65 1004 10 16.0934 0 0
3:15 pm 15:15 Sunny 79 26 31 -0.6 17 17 SW 13 20 29.65 1004 10 16.0934 0 0
3:35 pm 15:35 Sunny 79 25.9 31 -0.5 18 18 SW 14 22 29.65 1004 10 16.0934 0 0
3:55 pm 15:55 Sunny 76 24.4 32 0 20 20 SW 8 13 29.68 1005 10 16.0934 0 0
4:15 pm 16:15 Sunny 75 23.8 33 0.6 22 22 SW 6 9 29.68 1005 10 16.0934 0 0
4:35 pm 16:35 Sunny 76 24.5 32 0.2 20 20 SW 7 11 29.65 1004 10 16.0934 0 0
4:55 pm 16:55 Sunny 75 23.9 33 0.6 22 22 SW 7 11 29.68 1005 10 16.0934 0 0
5:15 pm 17:15 Sunny 72 22.2 34 1.1 25 25 SW 7 11 29.68 1005 10 16.0934 0 0
5:35 pm 17:35 Clear 69 20.7 35 1.4 28 28 SSW 7 11 29.74 1007 10 16.0934 0 0
5:55 pm 17:55 Clear 66 19.1 35 1.8 32 32 SSW 8 13 29.74 1007 10 16.0934 0 0
6:15 pm 18:15 Clear 61 16.3 37 2.5 40 40 SW 5 7 29.77 1008 10 16.0934 0 0
6:35 pm 18:35 Clear 61 16.3 36 2.2 39 39 SSW 6 9 29.77 1008 10 16.0934 0 0
6:55 pm 18:55 Clear 59 15 37 2.9 44 44 SW 7 11 29.77 1008 10 16.0934 0 0
7:15 pm 19:15 Clear 60 15.5 37 3 43 43 SW 8 13 29.77 1008 10 16.0934 0 0
7:35 pm 19:35 Clear 60 15.3 38 3.2 45 45 SW 10 17 29.77 1008 10 16.0934 0 0
7:55 pm 19:55 Clear 59 15.2 38 3.5 46 46 SW 9 15 29.77 1008 10 16.0934 0 0
8:15 pm 20:15 Clear 59 15 39 3.8 47 47 SW 8 13 29.77 1008 10 16.0934 0 0
8:35 pm 20:35 Clear 59 14.9 39 4 48 48 SW 7 11 29.77 1008 10 16.0934 0 0
8:55 pm 20:55 Clear 58 14.3 39 4.1 51 51 SW 8 13 29.8 1009 10 16.0934 0 0
9:15 pm 21:15 Clear 57 13.7 40 4.3 53 53 SW 8 13 29.8 1009 10 16.0934 0 0
9:35 pm 21:35 Clear 56 13.5 40 4.5 55 55 SW 8 13 29.8 1009 10 16.0934 0 0
9:55 pm 21:55 Clear 58 14.3 40 4.5 52 52 SW 8 13 29.8 1009 10 16.0934 0 0
10:15 pm 22:15 Clear 57 14 40 4.3 52 52 SW 8 13 29.8 1009 10 16.0934 0 0
10:35 pm 22:35 Clear 56 13.2 40 4.5 56 56 SW 7 11 29.8 1009 10 16.0934 0 0
10:55 pm 22:55 Clear 55 12.7 40 4.5 58 58 SW 7 11 29.8 1009 10 16.0934 0 0
11:15 pm 23:15 Clear 57 13.8 40 4.5 54 54 SW 7 11 29.8 1009 10 16.0934 0 0
11:35 pm 23:35 Clear 56 13.5 40 4.7 56 56 SW 9 15 29.8 1009 10 16.0934 0 0
11:55 pm 23:55 Clear 56 13.6 40 4.7 55 55 SW 8 13 29.8 1009 10 16.0934 0 0

Powered by AerisWeather